Regional Weather Roundup
Issued by NWS

Home | Current Version | Previous Version | Graphics & Text | Print | Product List | Glossary On
Versions: 1 2 3 4 5 6 7 8 9 10 11 12 13 14 15 16 17 18 19 20 21 22 23 24 25 26 27 28 29 30 31 32 33 34 35 36 37 38 39 40 41 42 43 44 45 46 47 48 49 50
000
ASUS43 KFSD 302302
RWRSD

WEATHER ROUNDUP FOR SOUTH DAKOTA
NATIONAL WEATHER SERVICE SIOUX FALLS SD
600 PM CDT WED JUL 30 2014

NOTE: "FAIR" INDICATES FEW OR NO CLOUDS BELOW 12,000 FEET WITH NO
SIGNIFICANT WEATHER AND/OR OBSTRUCTIONS TO VISIBILITY.


SDZ001>005-009-010-012>017-310000-
NORTHWEST AND NORTH CENTRAL SOUTH DAKOTA

CITY           SKY/WX    TMP DP  RH WIND       PRES   REMARKS
BUFFALO          N/A     82  50  32 NE10      30.11S
FAITH            N/A     84  52  33 VRB3      30.11F
MOBRIDGE       SUNNY     83  56  39 NE7       30.07F
$$

SDZ012>016-024>037-041>051-057-063-072>074-310000-
SOUTHWEST AND SOUTH CENTRAL SOUTH DAKOTA

CITY           SKY/WX    TMP DP  RH WIND       PRES   REMARKS
RAPID CTY ARPT MOSUNNY   84  48  28 N10       30.15F
PIERRE         MOSUNNY   86  52  30 E5        30.05F
CUSTER         PTSUNNY   73  50  44 E12       30.30S
ELLSWORTH AFB  SUNNY     83  46  27 N8        30.15F
PHILIP         MOSUNNY   89  45  21 N7G18     30.06F
PINE RIDGE     PTSUNNY   79  50  36 W5        30.17F
WINNER         CLOUDY    86  48  26 SE5       30.09F
$$

SDZ004>011-016>023-039-040-310000-
NORTHEAST SOUTH DAKOTA

CITY           SKY/WX    TMP DP  RH WIND       PRES   REMARKS
ABERDEEN       SUNNY     79  54  41 NE13      30.09F
WATERTOWN      SUNNY     77  53  43 NW8       30.11F
SISSETON         N/A     79  55  43 N10       30.08F
$$

SDZ017-020-022-023-036>040-048>070-310000-
SOUTHEAST SOUTH DAKOTA

CITY           SKY/WX    TMP DP  RH WIND       PRES   REMARKS
SIOUX FALLS    MOSUNNY   79  53  40 CALM      30.11F
HURON          SUNNY     82  52  35 VRB5      30.09F
CHAMBERLAIN    MOSUNNY   83  55  37 CALM      30.09S
MITCHELL       SUNNY     82  54  37 CALM      30.10F
YANKTON        SUNNY     79  54  41 SE5       30.11S
$$

ABBREVIATIONS USED IN REMARKS
   TC - TEMPERATURE IN CELSIUS
  WCI - WIND CHILL INDEX
   HX - HEAT INDEX
  VSB - VISIBILITY




USA.gov is the U.S. government's official web portal to all federal, state and local government web resources and services.